Location: ??????
(41.3794°N, 22.5014°E)
Time: 21:22:54
(UTC+00:00)

Cosmos 2181 Rocket - Pass Details

Date: 30 November 2020
Orbit: 951 x 1015 km, 82.9° (Epoch: 18 January)

Event Time Altitude Azimuth Distance (km) Brightness Sun altitude
Rises 15:25:18 0° 168° (SSE) 3,735 7.2 -4.8°
Reaches altitude 10° 15:27:55 10° 163° (SSE) 2,785 6.5 -5.3°
Maximum altitude 15:34:02 49° 91° (E) 1,281 4.3 -6.3°
Drops below altitude 10° 15:40:06 10° 18° (NNE) 2,770 6.0 -7.4°
Sets 15:42:41 0° 14° (NNE) 3,714 6.7 -7.8°
